This is the latest recevied weather packets stored in our database for station/object DG4DAZ-6. If no packets are shown the sender has not sent any weather packets the latest 1 day(s).
| Time | Temp. | Humidity | Pressure | Rain* | Wind** | Luminosity | Snow |
|---|---|---|---|---|---|---|---|
| 1778035435 | 9.44° C | 97% | 1004.1 hPa | 0.76 mm | - | 0 W/m² | - |
| 1778034834 | 9.44° C | 97% | 1004.1 hPa | 0.76 mm | - | 0 W/m² | - |
| 1778034236 | 9.44° C | 97% | 1004.2 hPa | 0.76 mm | - | 0 W/m² | - |
| 1778033635 | 9.44° C | 97% | 1004.2 hPa | 0.51 mm | - | 0 W/m² | - |
| 1778033034 | 9.44° C | 97% | 1004.2 hPa | 0.51 mm | - | 0 W/m² | - |
| 1778032436 | 9.44° C | 97% | 1004.2 hPa | 0.76 mm | - | 0 W/m² | - |
| 1778031835 | 9.44° C | 97% | 1004.2 hPa | 0.76 mm | - | 0 W/m² | - |
| 1778031234 | 9.44° C | 97% | 1004.4 hPa | 1.02 mm | - | 0 W/m² | - |
| 1778030634 | 9.44° C | 97% | 1004.4 hPa | 1.02 mm | - | 0 W/m² | - |
| 1778030035 | 9.44° C | 97% | 1004.4 hPa | 1.27 mm | - | 0 W/m² | - |
| 1778028834 | 9.44° C | 97% | 1004.5 hPa | 1.52 mm | - | 0 W/m² | - |
| 1778028234 | 9.44° C | 97% | 1004.6 hPa | 1.78 mm | - | 0 W/m² | - |
| 1778027635 | 9.44° C | 97% | 1004.6 hPa | 1.52 mm | - | 0 W/m² | - |
| 1778026436 | 9.44° C | 97% | 1004.8 hPa | 1.78 mm | - | 0 W/m² | - |
| 1778023435 | 9.44° C | 97% | 1005.1 hPa | 2.54 mm | - | 0 W/m² | - |
| 1778022836 | 9.44° C | 97% | 1005.2 hPa | 2.29 mm | - | 0 W/m² | - |
| 1778021635 | 9.44° C | 97% | 1005.3 hPa | 1.78 mm | - | 0 W/m² | - |
| 1778021036 | 9.44° C | 97% | 1005.3 hPa | 1.52 mm | - | 0 W/m² | - |
| 1778019835 | 9.44° C | 97% | 1005.4 hPa | 1.52 mm | - | 0 W/m² | - |
| 1778018636 | 9.44° C | 97% | 1005.5 hPa | 1.78 mm | - | 0 W/m² | - |
| 1778018036 | 9.44° C | 97% | 1005.5 hPa | 1.78 mm | - | 0 W/m² | - |
| 1778016836 | 9.44° C | 97% | 1005.7 hPa | 2.03 mm | - | 0 W/m² | - |
| 1778009036 | 10.56° C | 97% | 1005.9 hPa | 1.52 mm | - | 0 W/m² | - |
* Rain latest hour (hover to see other rain measurements)
** Current wind speed in m/s (hover to see current wind gust speed)